Regional Weather Roundup
Issued by NWS

Home | Current Version | Previous Version | Graphics & Text | Print | Product List | Glossary On
Versions: 1 2 3 4 5 6 7 8 9 10 11 12 13 14 15 16 17 18 19 20 21 22 23 24 25 26 27 28 29 30 31 32 33 34 35 36 37 38 39 40 41 42 43 44 45 46 47 48 49 50
496
ASUS43 KIND 061459
RWRIN

WEATHER ROUNDUP FOR INDIANA
NATIONAL WEATHER SERVICE INDIANAPOLIS IN
1000 AM EST SAT FEB 06 2016

NOTE: "FAIR" INDICATES FEW OR NO CLOUDS BELOW 12,000 FEET WITH NO
SIGNIFICANT WEATHER AND/OR OBSTRUCTIONS TO VISIBILITY.

* - STATION DOES NOT REPORT WEATHER SUCH AS PRECIPITATION OR FOG.

+ - STATION NOT QUALITY CONTROLLED BY THE NATIONAL WEATHER SERVICE.
    USE DATA WITH CAUTION...ESPECIALLY DEWPOINT AND RELATIVE
    HUMIDITY OBSERVATIONS.

INZ001>003-010>013-019-020-061600-
NORTHWEST INDIANA

CITY           SKY/WX    TMP DP  RH WIND       PRES   REMARKS
GARY /AIRPORT/ SUNNY     30  23  74 S5        30.30F WCI  25
RENSSELAER +   SUNNY     30  25  80 S8        30.31F WCI  23

$$

LMZ046-743>745-061600-
SOUTHERN LAKE MICHIGAN

STATION/POSITION TIME  TEMP    WIND        PRES    WAVE
                       AIR SEA DIR/SP/G            HT
                 (UTC) (F)     (DEG/KT/KT) (MB)    (FT)
BURNS HARBOR     1400   27     200/ 11/ 13 1026.1S
MICHIGAN CITY    1400   26     160/ 12/ 15   N/A

$$

INZ004-005-014>016-021>024-061600-
NORTH CENTRAL INDIANA

CITY           SKY/WX    TMP DP  RH WIND       PRES   REMARKS
ELKHART        SUNNY     81  75  83 MISG      30.30S
GOSHEN         SUNNY     27  23  85 SW10      30.29S FOG     WCI  17
PERU/GRISSOM   SUNNY     28  25  88 SW9       30.30F WCI  19
SOUTH BEND     SUNNY     26  22  84 SW10      30.29F WCI  16

$$

INZ006>009-017-018-025>027-061600-
NORTHEAST INDIANA

CITY           SKY/WX    TMP DP  RH WIND       PRES   REMARKS
ANGOLA *+      SUNNY     27  25  93 SW7       30.26F WCI  19
FORT WAYNE     MOSUNNY   27  24  89 SW8       30.32F FOG     WCI  19

$$

INZ028-029-035-036-043>045-051>053-061600-
WEST CENTRAL INDIANA

CITY           SKY/WX    TMP DP  RH WIND       PRES   REMARKS
GREENCASTLE +  CLOUDY    28  21  74 S3        30.34S
LAFAYETTE      PTSUNNY   27  23  85 SW6       30.34S WCI  20
TERRE HAUTE    PTSUNNY   29  25  85 S3        30.36R

$$

INZ030>032-037>040-046>048-054>057-064-065-061600-
CENTRAL INDIANA

CITY           SKY/WX    TMP DP  RH WIND       PRES   REMARKS
ANDERSON       SUNNY     28  25  86 S8        30.35R WCI  20
COLUMBUS       SUNNY     28  28 100 CALM      30.37R FOG
GREENWOOD *+   PTSUNNY   30  27  86 S5        30.35R WCI  25
INDIANAPOLIS   CLOUDY    28  24  85 S3        30.32F
-EAGLE CREEK   CLOUDY    28  24  85 S3        30.33S
KOKOMO *+      SUNNY     28  23  80 S10       30.32F WCI  19
MT COMFORT *+  SUNNY     28  25  86 SW5       30.34S WCI  23
SHELBYVILLE    SUNNY     30  26  85 S5        30.34S FOG     WCI  25

$$

INZ033-034-041-042-049-050-058-059-061600-
EAST CENTRAL INDIANA

CITY           SKY/WX    TMP DP  RH WIND       PRES   REMARKS
MUNCIE         SUNNY     29  23  78 SW8       30.33R WCI  21

$$

INZ060-061-067>069-081>083-085>088-061600-
SOUTHWEST INDIANA

CITY           SKY/WX    TMP DP  RH WIND       PRES   REMARKS
EVANSVILLE     PTSUNNY   36  28  73 CALM      30.36S
HUNTINGBURG *+ PTSUNNY   34  27  75 S6        30.36S WCI  29

$$

INZ062-063-066-070>080-084-089>092-061600-
SOUTH CENTRAL AND SOUTHEAST INDIANA

CITY           SKY/WX    TMP DP  RH WIND       PRES   REMARKS
BLOOMINGTON    CLOUDY    30  26  85 SE5       30.33F WCI  25
MADISON *+     SUNNY     34  28  80 CALM      30.36F
SEYMOUR +      SUNNY     34  27  75 CALM      30.36S

$$





USA.gov is the U.S. government's official web portal to all federal, state and local government web resources and services.